Weather Roundup
Issued by NWS

Home | Current Version | Previous Version | Text Only | Print | Product List | Glossary On
Versions: 1 2 3 4 5 6 7 8 9 10 11 12 13 14 15 16 17 18 19 20 21 22 23 24 25 26 27 28 29 30 31 32 33 34 35 36 37 38 39 40 41 42 43 44 45 46 47 48 49 50
000
NZUS93 KARX 161710
HRRWXR

CURRENT HOURLY OBSERVATIONS ACROSS
MUCH OF THE UPPER MISSISSIPPI VALLEY
NATIONAL WEATHER SERVICE LA CROSSE WI
1200 PM CDT TUE SEP 16 2014


...SOUTHEAST MINNESOTA...


CITY           SKY/WX    TMP DP  RH WIND       PRES   REMARKS
ROCHESTER      SUNNY     61  32  33 SW8G16    30.18F
ROCHESTER/MAYO FAIR      60  36  40 SW8       30.17F
WINONA         SUNNY     61  41  48 W3        30.17F
AUSTIN         SUNNY     61  45  55 W6        30.17F
ALBERT LEA     SUNNY     61  41  48 SW8       30.17F
DODGE CENTER   MOSUNNY   61  45  55 SW8       30.17F
PRESTON        MOSUNNY   59  48  65 SW9       30.19F
OWATONNA       SUNNY     63  43  48 SW8       30.16F
FARIBAULT      SUNNY     66  39  37 W9        30.16F
$$

...ELSEWHERE IN MINNESOTA...


CITY           SKY/WX    TMP DP  RH WIND       PRES   REMARKS
MINNEAPOLIS    SUNNY     63  41  44 SW9       30.14F
INTNL FALLS    CLOUDY    56  44  64 NW7       29.99S
DULUTH         MOSUNNY   64  40  41 W15G24    30.04F
RED WING       SUNNY     63  41  45 W6        30.15F
REDWOOD FALLS  SUNNY     63  42  46 SW13      30.13F
MANKATO        SUNNY     63  43  48 W10G16    30.16F
WORTHINGTON    SUNNY     59  43  55 SW13G21   30.16F
FAIRMONT       SUNNY     63  39  42 SW10G16   30.17F
$$

...SOUTHWEST WISCONSIN...


CITY           SKY/WX    TMP DP  RH WIND       PRES   REMARKS
LA CROSSE      SUNNY     63  43  48 W8        30.18F
PRAIRIE DU CHI MOSUNNY   61  41  48 SW3       30.19F
BOSCOBEL       PTSUNNY   62  44  51 VRB3      30.20F
LONE ROCK      SUNNY     63  41  44 W9        30.20F
PLATTEVILLE    SUNNY     60  43  54 CALM      30.21F
FORT MC COY    SUNNY     60  42  50 W6        30.18F
CAMP DOUGLAS   SUNNY     61  43  51 W7        30.17F
VIROQUA        FAIR      60  40  47 W8        30.19F
WIS DELLS      MOSUNNY   60  37  42 SW5       30.18F
$$

...ELSEWHERE IN WISCONSIN...


CITY           SKY/WX    TMP DP  RH WIND       PRES   REMARKS
MILWAUKEE      MOSUNNY   60  36  40 W6        30.19F
MADISON        MOSUNNY   60  39  45 NW8       30.20S
GREEN BAY      SUNNY     62  41  46 SW9       30.14F
EAU CLAIRE     SUNNY     62  41  46 W9        30.15F
BLACK RVR FLS  FAIR      61  41  47 SW8       30.17F
MEDFORD        SUNNY     59  42  53 SW8       30.14F
WAUSAU         SUNNY     60  41  49 W7        30.13F
WIS RAPIDS     SUNNY     61  39  44 W10       30.17F
MARSHFIELD     SUNNY     62  43  49 W12       30.15F
RICE LAKE      SUNNY     62  39  42 SW10      30.15F
$$

...NORTHEAST IOWA...


CITY           SKY/WX    TMP DP  RH WIND       PRES   REMARKS
WATERLOO       SUNNY     61  42  49 VRB3      30.19F
DUBUQUE        SUNNY     59  42  53 W8        30.22F
DECORAH        MOSUNNY   61  43  51 SW9       30.18F
MASON CITY     SUNNY     62  44  51 W10       30.20F
CHARLES CITY   SUNNY     61  41  48 VRB7G14   30.20F
OELWEIN        SUNNY     61  41  48 SW7       30.21F
$$

...ELSEWHERE IN IOWA...


CITY           SKY/WX    TMP DP  RH WIND       PRES   REMARKS
DES MOINES     MOSUNNY   62  44  51 SW5       30.21F
IOWA CITY      MOSUNNY   61  45  55 S5        30.23F
FORT DODGE     SUNNY     63  45  51 S5        30.20F
MARSHALLTOWN   SUNNY     61  42  49 W3        30.20F
CEDAR RAPIDS   MOSUNNY   60  43  53 VRB3      30.21F
$$

...NORTHERN ILLINOIS...


CITY           SKY/WX    TMP DP  RH WIND       PRES   REMARKS
CHICAGO-OHARE  MOSUNNY   60  40  47 CALM      30.19F
DUPAGE         SUNNY     64  42  44 W8        30.19F
CHICAGO-MIDWAY MOSUNNY   62  43  49 NW3       30.19F
MOLINE         SUNNY     63  41  44 NW6       30.22F
ROCKFORD       MOSUNNY   63  41  44 W8        30.22F
STERLING       SUNNY     64  43  45 N5        30.21F
PEORIA         MOSUNNY   63  46  54 CALM      30.21F
$$

NOTE: "FAIR" INDICATES FEW OR NO CLOUDS BELOW 12,000 FEET WITH NO
SIGNIFICANT WEATHER AND/OR OBSTRUCTIONS TO VISIBILITY. WIND
SPEEDS ARE IN MILES-PER-HOUR.



USA.gov is the U.S. government's official web portal to all federal, state and local government web resources and services.